Inverness, FL

2:24 PM EDT on May 27, 2017 (GMT -0400)
Inverness

Weather History for KINF - March, 2013

Change the Weather History Date:

Friday, March 29, 2013

  Actual Average (KBKV) Record (KBKV)
Temperature  
Mean Temperature 54 °F -  
Max Temperature 73 °F 77 °F 90 °F (2017)
Min Temperature 35 °F 51 °F 37 °F (2013)
Degree Days  
Heating Degree Days 11    
Growing Degree Days 4 (Base 50)    
Moisture  
Dew Point 38 °F    
Average Humidity 62    
Maximum Humidity 100    
Minimum Humidity 20    
Precipitation  
Precipitation 0.00 in - - ()
Sea Level Pressure  
Sea Level Pressure 30.29 in    
Wind  
Wind Speed 1 mph (NE)    
Max Wind Speed 7 mph    
Max Gust Speed -    
Visibility 10 miles    
Events      
Averages and records for this station are not official NWS values.
T = Trace of Precipitation, MM = Missing Value Source: NWS Daily Summary

Daily Weather History Graph

Daily Weather History Graph

Search for Another Location

Airport or City:

Trip Planner

Search our weather history database for the weather conditions in past years. The results will help you decide how hot, cold, wet, or windy it might be!

Date:

Astronomy

Mar. 29, 2013 Rise Set
Actual Time 7:22 AM EDT 7:45 PM EDT
Civil Twilight 6:58 AM EDT 8:09 PM EDT
Nautical Twilight 6:30 AM EDT 8:37 PM EDT
Astronomical Twilight 6:02 AM EDT 9:05 PM EDT
Moon 10:28 PM EDT (3/29) 8:44 AM EDT (3/29)
Length of Visible Light 13h 10m
Length of Day
12h 23m
Waning Gibbous, 93% of the Moon is Illuminated
Mar 29
Waning Gibbous
Apr 3
Last Quarter
Apr 10
New
Apr 18
First Quarter
Apr 25
Full

Hourly Weather History & Observations

Time (EDT) Temp. Dew Point Humidity Pressure Visibility Wind Dir Wind Speed Gust Speed Precip Events Conditions
12:15 AM 44.6 °F 41.0 °F 87% 30.32 in 10.0 mi Calm Calm - N/A   Clear
12:35 AM 44.6 °F 41.0 °F 87% 30.31 in 10.0 mi Calm Calm - N/A   Clear
12:55 AM 44.6 °F 42.8 °F 93% 30.31 in 10.0 mi Calm Calm - N/A   Clear
1:15 AM 42.8 °F 42.8 °F 100% 30.31 in 10.0 mi Calm Calm - N/A   Clear
1:35 AM 42.8 °F 41.0 °F 93% 30.31 in 10.0 mi Calm Calm - N/A   Clear
1:55 AM 41.0 °F 41.0 °F 100% 30.31 in 10.0 mi Calm Calm - N/A   Clear
2:15 AM 41.0 °F 41.0 °F 100% 30.30 in 10.0 mi Calm Calm - N/A   Clear
2:35 AM 41.0 °F 41.0 °F 100% 30.30 in 10.0 mi Calm Calm - N/A   Clear
2:55 AM 41.0 °F 41.0 °F 100% 30.30 in 10.0 mi Calm Calm - N/A   Clear
3:15 AM 41.0 °F 41.0 °F 100% 30.30 in 10.0 mi Calm Calm - N/A   Clear
3:35 AM 41.0 °F 41.0 °F 100% 30.29 in 10.0 mi Calm Calm - N/A   Clear
3:55 AM 41.0 °F 39.2 °F 93% 30.29 in 10.0 mi Calm Calm - N/A   Clear
4:15 AM 39.2 °F 39.2 °F 100% 30.29 in 10.0 mi Calm Calm - N/A   Clear
4:35 AM 39.2 °F 39.2 °F 100% 30.29 in 10.0 mi Calm Calm - N/A   Clear
4:55 AM 37.4 °F 37.4 °F 100% 30.29 in 10.0 mi Calm Calm - N/A   Clear
5:15 AM 37.4 °F 37.4 °F 100% 30.29 in 10.0 mi Calm Calm - N/A   Clear
5:35 AM 37.4 °F 37.4 °F 100% 30.29 in 10.0 mi Calm Calm - N/A   Clear
5:55 AM 37.4 °F 37.4 °F 100% 30.30 in 10.0 mi Calm Calm - N/A   Clear
6:15 AM 37.4 °F 37.4 °F 100% 30.30 in 10.0 mi Calm Calm - N/A   Clear
6:35 AM 35.6 °F 35.6 °F 100% 30.31 in 7.0 mi Calm Calm - N/A   Clear
6:55 AM 35.6 °F 35.6 °F 100% 30.31 in 7.0 mi Calm Calm - N/A   Clear
7:15 AM 35.6 °F 35.6 °F 100% 30.32 in 10.0 mi Calm Calm - N/A   Clear
7:35 AM 35.6 °F 35.6 °F 100% 30.32 in 7.0 mi Calm Calm - N/A   Clear
7:55 AM 35.6 °F 35.6 °F 100% 30.33 in 10.0 mi Calm Calm - N/A   Clear
8:15 AM 39.2 °F 37.4 °F 93% 30.34 in 10.0 mi Calm Calm - N/A   Clear
8:35 AM 42.8 °F 41.0 °F 93% 30.34 in 10.0 mi Calm Calm - N/A   Clear
8:55 AM 46.4 °F 44.6 °F 93% 30.35 in 10.0 mi Calm Calm - N/A   Clear
9:15 AM 50.0 °F 44.6 °F 82% 30.35 in 10.0 mi Calm Calm - N/A   Clear
9:35 AM 53.6 °F 46.4 °F 77% 30.35 in 10.0 mi Calm Calm - N/A   Clear
9:55 AM 59.0 °F 46.4 °F 63% 30.36 in 10.0 mi Calm Calm - N/A   Clear
10:15 AM 60.8 °F 44.6 °F 55% 30.36 in 10.0 mi Calm Calm - N/A   Clear
10:35 AM 62.6 °F 41.0 °F 45% 30.36 in 10.0 mi Calm Calm - N/A   Clear
10:55 AM 64.4 °F 37.4 °F 37% 30.36 in 10.0 mi Calm Calm - N/A   Clear
11:15 AM 66.2 °F 35.6 °F 32% 30.36 in 10.0 mi East 5.8 mph - N/A   Clear
11:35 AM 68.0 °F 33.8 °F 28% 30.35 in 10.0 mi ENE 4.6 mph - N/A   Clear
11:55 AM 68.0 °F 32.0 °F 26% 30.35 in 10.0 mi SE 3.5 mph - N/A   Clear
12:15 PM 68.0 °F 33.8 °F 28% 30.34 in 10.0 mi NE 5.8 mph - N/A   Clear
12:35 PM 69.8 °F 32.0 °F 25% 30.34 in 10.0 mi NNE 6.9 mph - N/A   Clear
12:55 PM 69.8 °F 32.0 °F 25% 30.33 in 10.0 mi East 4.6 mph - N/A   Clear
1:15 PM 71.6 °F 32.0 °F 23% 30.32 in 10.0 mi ESE 4.6 mph - N/A   Clear
1:35 PM 71.6 °F 32.0 °F 23% 30.30 in 10.0 mi NE 4.6 mph - N/A   Clear
1:55 PM 71.6 °F 32.0 °F 23% 30.29 in 10.0 mi East 4.6 mph - N/A   Clear
2:15 PM 71.6 °F 32.0 °F 23% 30.29 in 10.0 mi Calm Calm - N/A   Clear
2:35 PM 73.4 °F 32.0 °F 22% 30.28 in 10.0 mi NNE 4.6 mph - N/A   Clear
2:55 PM 73.4 °F 32.0 °F 22% 30.27 in 10.0 mi North 3.5 mph - N/A   Clear
3:15 PM 73.4 °F 32.0 °F 22% 30.26 in 10.0 mi North 6.9 mph - N/A   Clear
3:35 PM 73.4 °F 32.0 °F 22% 30.25 in 10.0 mi West 4.6 mph - N/A   Clear
3:55 PM 73.4 °F 32.0 °F 22% 30.24 in 10.0 mi Calm Calm - N/A   Clear
4:15 PM 73.4 °F 32.0 °F 22% 30.23 in 10.0 mi Calm Calm - N/A   Clear
4:35 PM 73.4 °F 32.0 °F 22% 30.22 in 10.0 mi NNE 4.6 mph - N/A   Clear
4:55 PM 73.4 °F 30.2 °F 20% 30.22 in 10.0 mi NE 3.5 mph - N/A   Clear
5:15 PM 73.4 °F 30.2 °F 20% 30.22 in 10.0 mi Calm Calm - N/A   Clear
5:35 PM 73.4 °F 32.0 °F 22% 30.21 in 10.0 mi NNW 3.5 mph - N/A   Clear
5:55 PM 73.4 °F 32.0 °F 22% 30.21 in 10.0 mi Calm Calm - N/A   Clear
6:15 PM 73.4 °F 32.0 °F 22% 30.21 in 10.0 mi South 4.6 mph - N/A   Clear
6:35 PM 73.4 °F 32.0 °F 22% 30.22 in 10.0 mi Calm Calm - N/A   Clear
6:55 PM 71.6 °F 35.6 °F 27% 30.22 in 10.0 mi Calm Calm - N/A   Clear
7:15 PM 68.0 °F 35.6 °F 30% 30.23 in 10.0 mi West 3.5 mph - N/A   Clear
7:35 PM 68.0 °F 35.6 °F 30% 30.23 in 10.0 mi Calm Calm - N/A   Clear
7:55 PM 64.4 °F 35.6 °F 34% 30.23 in 10.0 mi Calm Calm - N/A   Clear
8:15 PM 62.6 °F 37.4 °F 39% 30.24 in 10.0 mi Calm Calm - N/A   Clear
8:35 PM 60.8 °F 41.0 °F 48% 30.25 in 10.0 mi Calm Calm - N/A   Clear
8:55 PM 60.8 °F 42.8 °F 52% 30.26 in 10.0 mi Calm Calm - N/A   Clear
9:15 PM 57.2 °F 42.8 °F 59% 30.26 in 10.0 mi Calm Calm - N/A   Clear
9:35 PM 55.4 °F 42.8 °F 63% 30.26 in 10.0 mi Calm Calm - N/A   Clear
9:55 PM 53.6 °F 44.6 °F 72% 30.27 in 10.0 mi Calm Calm - N/A   Clear
10:15 PM 51.8 °F 44.6 °F 76% 30.27 in 10.0 mi Calm Calm - N/A   Clear
10:35 PM 51.8 °F 44.6 °F 76% 30.27 in 10.0 mi Calm Calm - N/A   Clear
10:55 PM 50.0 °F 42.8 °F 76% 30.28 in 10.0 mi Calm Calm - N/A   Clear
11:15 PM 51.8 °F 44.6 °F 76% 30.29 in 10.0 mi Calm Calm - N/A   Clear
11:35 PM 50.0 °F 44.6 °F 82% 30.29 in 10.0 mi Calm Calm - N/A   Clear
11:55 PM 50.0 °F 44.6 °F 82% 30.29 in 10.0 mi Calm Calm - N/A   Clear